{"data":{"norad_id":59623,"intl_designator":"2024-080Y","name":"STARLINK-31763","alt_names":[],"object_type":"PAYLOAD","status":"ACTIVE","operator":null,"country":"US","launch_date":"2024-04-28","launch_site_code":"AFETR","launch_vehicle":null,"mission":null,"orbit_class":"UNKNOWN","rcs_meters":null,"size_class":null,"mass_kg":null,"dimensions":null,"purposes":["comms"],"wikipedia_slug":null,"has_3d_model":false,"image_url":null,"decayed_at":null,"tle_current":{"epoch":"2026-05-24T21:36:54.222048Z","epoch_age_seconds":90398,"freshness":"FRESH","line1":"1 59623U 24080Y   26144.90062757  .00000112  00000+0  13614-4 0  9994","line2":"2 59623  43.0033 327.8959 0001342 276.6295  83.4404 15.27577944116181","mean_motion":15.27577944,"eccentricity":0.0001342,"inclination_deg":43.0033,"raan_deg":327.8959,"arg_perigee_deg":276.6295,"mean_anomaly_deg":83.4404,"bstar":1.3614e-5,"rev_number":11618,"period_min":94.266875589296,"perigee_km":482.13448044992,"apogee_km":483.97602445048,"semimajor_km":6861.1922524502,"source":"CELESTRAK","updated_at":"2026-05-25T13:38:19.012198Z"}}}